Location: Nag� el Ma?a??a
(24.0667°N, 32.8833°E)
Time: 15:50:19
(UTC+00:00)

Landsat 5 - Pass Details

Date: 25 September 2021
Orbit: 528 x 653 km, 98.2° (Epoch: 16 October)

Event Time Altitude Azimuth Distance (km) Brightness Sun altitude
Rises 03:09:47 0° 167° (SSE) 2,775 7.1 -7.3°
Reaches altitude 10° 03:11:57 10° 167° (SSE) 1,859 6.2 -6.8°
Maximum altitude 03:15:58 89° 86° (E) 557 3.4 -5.9°
Drops below altitude 10° 03:19:52 10° 348° (NNW) 1,806 5.9 -5.0°
Sets 03:21:57 0° 349° (NNW) 2,687 6.7 -4.5°
